When you browse on this site, cookies collect data to enhance your experience and personalize the content and advertising you see.
Visit our Privacy Policy to learn more. By continuing to use the site, you agree to this use of cookies and data.
  • In Schweiz
  • Länderverzeichnis
  • Für 7 Tage
  • Wassertemperatur
  • Wetterkarte
  • Widgets
  • user-avatar
    Anmelden

    Stündliche Wetter De-Mojn

    Heute, 29 Mai, Freitag

    Zeit Temperatur Niederschläge Wind Luftdruck Luftfeuchtigkeit
    00:00 +16°C° 0 mm 3 m/S 739 mmHg 78%
    01:00 +14°C° 0 mm 3 m/S 740 mmHg 81%
    02:00 +14°C° 0 mm 3 m/S 740 mmHg 84%
    03:00 +13°C° 0 mm 3 m/S 740 mmHg 86%
    04:00 +13°C° 0 mm 3 m/S 741 mmHg 86%
    05:00 +13°C° 0 mm 3 m/S 741 mmHg 86%
    06:00 +12°C° 0 mm 3 m/S 741 mmHg 86%
    07:00 +14°C° 0 mm 4 m/S 742 mmHg 79%
    08:00 +15°C° 0 mm 5 m/S 742 mmHg 73%
    09:00 +17°C° 0 mm 5 m/S 743 mmHg 66%
    10:00 +17°C° 0 mm 6 m/S 743 mmHg 65%
    11:00 +17°C° 0 mm 6 m/S 743 mmHg 65%
    12:00 +19°C° 0 mm 6 m/S 743 mmHg 64%
    13:00 +19°C° 0 mm 6 m/S 743 mmHg 63%
    14:00 +20°C° 0 mm 5 m/S 743 mmHg 62%
    15:00 +20°C° 0 mm 5 m/S 743 mmHg 62%
    16:00 +20°C° 0 mm 4 m/S 742 mmHg 65%
    17:00 +19°C° 0 mm 4 m/S 742 mmHg 69%
    18:00 +19°C° 0 mm 3 m/S 742 mmHg 73%
    19:00 +17°C° 0 mm 3 m/S 743 mmHg 77%
    20:00 +14°C° 0 mm 3 m/S 743 mmHg 81%
    21:00 +13°C° 0 mm 2 m/S 743 mmHg 85%
    22:00 +13°C° 0 mm 2 m/S 743 mmHg 86%
    23:00 +12°C° 0 mm 1 m/S 744 mmHg 87%

    Morgen, 30 Mai, Samstag

    Zeit Temperatur Niederschläge Wind Luftdruck Luftfeuchtigkeit
    00:00 +10°C° 0 mm 0 m/S 744 mmHg 89%
    01:00 +10°C° 0 mm 0 m/S 744 mmHg 88%
    02:00 +10°C° 0 mm 0 m/S 744 mmHg 88%
    03:00 +11°C° 0 mm 1 m/S 744 mmHg 88%
    04:00 +12°C° 0 mm 1 m/S 744 mmHg 87%
    05:00 +12°C° 0 mm 1 m/S 744 mmHg 87%
    06:00 +13°C° 0 mm 1 m/S 745 mmHg 86%
    07:00 +14°C° 0 mm 2 m/S 745 mmHg 81%
    08:00 +16°C° 0 mm 2 m/S 745 mmHg 75%
    09:00 +18°C° 0 mm 2 m/S 745 mmHg 70%
    10:00 +18°C° 0.2 mm 2 m/S 745 mmHg 70%
    11:00 +18°C° 0.2 mm 2 m/S 745 mmHg 71%
    12:00 +19°C° 0.2 mm 1 m/S 745 mmHg 71%
    13:00 +19°C° 0.2 mm 1 m/S 745 mmHg 73%
    14:00 +18°C° 0.2 mm 1 m/S 745 mmHg 74%
    15:00 +18°C° 0.2 mm 1 m/S 745 mmHg 76%
    16:00 +16°C° 0.1 mm 2 m/S 745 mmHg 81%
    17:00 +16°C° 0.1 mm 2 m/S 744 mmHg 86%
    18:00 +14°C° 0.1 mm 3 m/S 744 mmHg 91%
    19:00 +13°C° 0 mm 3 m/S 744 mmHg 91%
    20:00 +14°C° 0 mm 2 m/S 745 mmHg 92%
    21:00 +13°C° 0 mm 2 m/S 745 mmHg 93%
    22:00 +13°C° 0 mm 1 m/S 745 mmHg 92%
    23:00 +13°C° 0 mm 1 m/S 745 mmHg 92%

    übermorgen, 31 Mai, Sonntag

    Zeit Temperatur Niederschläge Wind Luftdruck Luftfeuchtigkeit
    00:00 +13°C° 0 mm 1 m/S 745 mmHg 91%
    01:00 +12°C° 0 mm 1 m/S 745 mmHg 92%
    02:00 +12°C° 0 mm 1 m/S 745 mmHg 92%
    03:00 +12°C° 0 mm 1 m/S 745 mmHg 92%
    04:00 +12°C° 0 mm 2 m/S 745 mmHg 91%
    05:00 +12°C° 0 mm 2 m/S 745 mmHg 90%
    06:00 +12°C° 0 mm 2 m/S 746 mmHg 89%
    07:00 +13°C° 0 mm 2 m/S 746 mmHg 87%
    08:00 +13°C° 0 mm 2 m/S 746 mmHg 86%
    09:00 +13°C° 0 mm 3 m/S 746 mmHg 84%
    10:00 +14°C° 0 mm 2 m/S 746 mmHg 84%
    11:00 +14°C° 0 mm 2 m/S 746 mmHg 83%
    12:00 +15°C° 0 mm 2 m/S 746 mmHg 82%
    13:00 +16°C° 0 mm 3 m/S 745 mmHg 79%
    14:00 +17°C° 0 mm 3 m/S 745 mmHg 76%
    15:00 +18°C° 0 mm 3 m/S 744 mmHg 73%
    16:00 +18°C° 0 mm 3 m/S 744 mmHg 75%
    17:00 +17°C° 0 mm 2 m/S 743 mmHg 78%
    18:00 +17°C° 0 mm 2 m/S 743 mmHg 81%
    19:00 +16°C° 0 mm 2 m/S 743 mmHg 81%
    20:00 +16°C° 0 mm 3 m/S 743 mmHg 82%
    21:00 +16°C° 0 mm 3 m/S 743 mmHg 82%
    22:00 +14°C° 0 mm 3 m/S 743 mmHg 82%
    23:00 +14°C° 0 mm 3 m/S 743 mmHg 82%

    1 Juni, Montag

    Zeit Temperatur Niederschläge Wind Luftdruck Luftfeuchtigkeit
    00:00 +14°C° 0 mm 4 m/S 743 mmHg 81%
    01:00 +14°C° 0.2 mm 4 m/S 743 mmHg 83%
    02:00 +14°C° 0.2 mm 4 m/S 742 mmHg 84%
    03:00 +14°C° 0.2 mm 4 m/S 742 mmHg 86%
    04:00 +14°C° 0.2 mm 4 m/S 742 mmHg 88%
    05:00 +14°C° 0.2 mm 4 m/S 742 mmHg 89%
    06:00 +14°C° 0.2 mm 4 m/S 741 mmHg 91%
    07:00 +15°C° 0 mm 5 m/S 741 mmHg 89%
    08:00 +17°C° 0 mm 6 m/S 741 mmHg 87%
    09:00 +19°C° 0 mm 6 m/S 741 mmHg 86%
    10:00 +21°C° 0 mm 7 m/S 741 mmHg 82%
    11:00 +23°C° 0 mm 7 m/S 740 mmHg 79%
    12:00 +26°C° 0 mm 7 m/S 740 mmHg 76%
    13:00 +26°C° 0 mm 7 m/S 740 mmHg 76%
    14:00 +27°C° 0 mm 7 m/S 739 mmHg 76%
    15:00 +27°C° 0 mm 7 m/S 739 mmHg 76%
    16:00 +26°C° 0 mm 6 m/S 738 mmHg 78%
    17:00 +26°C° 0 mm 5 m/S 738 mmHg 81%
    18:00 +26°C° 0 mm 5 m/S 738 mmHg 83%
    19:00 +25°C° 0 mm 5 m/S 738 mmHg 83%
    20:00 +23°C° 0 mm 5 m/S 738 mmHg 83%
    21:00 +23°C° 0 mm 6 m/S 738 mmHg 83%
    22:00 +22°C° 0 mm 5 m/S 738 mmHg 86%
    23:00 +22°C° 0 mm 5 m/S 738 mmHg 89%

    2 Juni, Dienstag

    Zeit Temperatur Niederschläge Wind Luftdruck Luftfeuchtigkeit
    00:00 +21°C° 0 mm 5 m/S 738 mmHg 92%
    01:00 +21°C° 0 mm 5 m/S 738 mmHg 92%
    02:00 +20°C° 0 mm 4 m/S 738 mmHg 93%
    03:00 +20°C° 0 mm 4 m/S 738 mmHg 94%
    04:00 +20°C° 0.3 mm 4 m/S 738 mmHg 94%
    05:00 +20°C° 0.3 mm 4 m/S 738 mmHg 93%
    06:00 +21°C° 0.3 mm 4 m/S 738 mmHg 93%
    07:00 +22°C° 0 mm 4 m/S 738 mmHg 88%
    08:00 +25°C° 0 mm 5 m/S 738 mmHg 83%
    09:00 +27°C° 0 mm 5 m/S 738 mmHg 78%
    10:00 +28°C° 0 mm 5 m/S 738 mmHg 76%
    11:00 +29°C° 0 mm 5 m/S 738 mmHg 74%
    12:00 +30°C° 0 mm 5 m/S 738 mmHg 71%
    13:00 +32°C° 0 mm 5 m/S 738 mmHg 71%
    14:00 +32°C° 0 mm 5 m/S 738 mmHg 70%
    15:00 +33°C° 0 mm 5 m/S 738 mmHg 70%
    16:00 +32°C° 0 mm 4 m/S 737 mmHg 73%
    17:00 +32°C° 0 mm 4 m/S 737 mmHg 76%
    18:00 +30°C° 0 mm 4 m/S 737 mmHg 80%
    19:00 +29°C° 0 mm 4 m/S 737 mmHg 84%
    20:00 +27°C° 0 mm 4 m/S 737 mmHg 88%
    21:00 +26°C° 0 mm 4 m/S 737 mmHg 93%
    22:00 +25°C° 0 mm 4 m/S 737 mmHg 93%
    23:00 +25°C° 0 mm 4 m/S 737 mmHg 93%

    3 Juni, Mittwoch

    Zeit Temperatur Niederschläge Wind Luftdruck Luftfeuchtigkeit
    00:00 +23°C° 0 mm 4 m/S 737 mmHg 93%
    01:00 +23°C° 0 mm 4 m/S 736 mmHg 93%
    02:00 +22°C° 0 mm 4 m/S 736 mmHg 94%
    03:00 +22°C° 0 mm 4 m/S 736 mmHg 94%
    04:00 +22°C° 0 mm 4 m/S 736 mmHg 94%
    05:00 +22°C° 0 mm 4 m/S 736 mmHg 93%
    06:00 +23°C° 0 mm 4 m/S 736 mmHg 92%
    07:00 +25°C° 0 mm 4 m/S 736 mmHg 87%
    08:00 +27°C° 0 mm 4 m/S 736 mmHg 82%
    09:00 +28°C° 0 mm 5 m/S 736 mmHg 76%
    10:00 +29°C° 0 mm 5 m/S 736 mmHg 75%
    11:00 +30°C° 0 mm 5 m/S 735 mmHg 73%
    12:00 +32°C° 0 mm 5 m/S 735 mmHg 71%
    13:00 +32°C° 1.1 mm 5 m/S 735 mmHg 73%
    14:00 +30°C° 1.1 mm 5 m/S 735 mmHg 75%
    15:00 +30°C° 1.1 mm 6 m/S 734 mmHg 77%
    16:00 +29°C° 0.9 mm 4 m/S 734 mmHg 78%
    17:00 +29°C° 0.9 mm 3 m/S 734 mmHg 78%
    18:00 +29°C° 0.9 mm 2 m/S 734 mmHg 79%
    19:00 +27°C° 0 mm 2 m/S 735 mmHg 82%
    20:00 +26°C° 0 mm 2 m/S 735 mmHg 85%
    21:00 +25°C° 0 mm 3 m/S 736 mmHg 88%
    22:00 +24°C° 0 mm 3 m/S 736 mmHg 90%
    23:00 +22°C° 0 mm 3 m/S 736 mmHg 93%
    Mehr zeigen